EW1164 Weather Reports


Display with metric or nautical units.
time (UTC)temp
F
wind
direction
speed
MPH
gust
MPH
rain 1hr
in
rain 24hr
in
rain mn
in
humidity
%
barometer
mb
20191019025035 48 213 0.0 2.0 0.00 0.07 0.07 67 1012.1
20191019024600 48 213 0.0 2.0 0.00 0.07 0.07 65 1012.2
20191019024039 48 213 0.0 0.0 0.00 0.07 0.07 64 1012.2
20191019023532 48 213 0.0 0.0 0.00 0.07 0.07 65 1012.2
20191019023141 47 213 0.0 0.0 0.00 0.07 0.07 66 1012.3
20191019022535 47 213 0.0 0.0 0.00 0.07 0.07 67 1012.3
20191019022032 48 213 0.0 1.0 0.00 0.07 0.07 67 1012.3
20191019021630 48 213 0.0 1.0 0.00 0.07 0.07 65 1012.3
20191019021032 48 213 0.0 5.0 0.00 0.07 0.07 65 1012.4
20191019020538 48 213 1.0 9.0 0.00 0.07 0.07 63 1012.4
20191019020108 48 192 5.0 9.0 0.00 0.07 0.07 61 1012.3
20191019015531 48 184 5.0 11.0 0.00 0.07 0.07 61 1012.4
20191019015032 48 226 5.0 15.0 0.00 0.07 0.07 62 1012.4
20191019014558 49 211 8.0 15.0 0.00 0.07 0.07 60 1012.5
20191019014030 49 194 6.0 14.0 0.00 0.07 0.07 58 1012.4
20191019013529 49 194 6.0 13.0 0.00 0.07 0.07 57 1012.4
20191019013125 49 228 7.0 13.0 0.00 0.07 0.07 57 1012.3
20191019012529 49 223 7.0 14.0 0.00 0.07 0.07 57 1012.3
20191019012034 49 227 6.0 15.0 0.00 0.07 0.07 57 1012.3
20191019011541 49 223 7.0 18.0 0.00 0.07 0.07 56 1012.3
20191019011027 49 247 10.0 20.0 0.00 0.07 0.07 55 1012.2
20191019010527 50 198 10.0 20.0 0.00 0.07 0.07 55 1012.2
20191019010040 50 185 4.0 7.0 0.00 0.07 0.07 56 1012.1
20191019005527 50 177 4.0 7.0 0.00 0.07 0.07 55 1012.0
20191019005026 50 208 4.0 8.0 0.00 0.07 0.07 55 1012.0
20191019004609 49 207 4.0 8.0 0.00 0.07 0.07 56 1012.0
20191019004026 49 185 2.0 6.0 0.00 0.07 0.07 57 1012.0
20191019003526 49 191 4.0 10.0 0.00 0.07 0.07 57 1012.1
20191019003058 49 190 4.0 10.0 0.00 0.07 0.07 57 1012.2
20191019002526 49 207 5.0 8.0 0.00 0.07 0.07 58 1012.1
20191019002031 49 196 4.0 8.0 0.00 0.07 0.07 58 1012.1
20191019001649 49 196 6.0 8.0 0.00 0.07 0.07 57 1012.1
20191019001031 49 192 6.0 10.0 0.00 0.07 0.07 57 1012.1
20191019000525 50 204 6.0 11.0 0.00 0.07 0.07 57 1012.1
20191019000053 50 225 6.0 15.0 0.00 0.07 0.07 57 1012.1
20191018235525 50 215 7.0 16.0 0.00 0.07 0.07 56 1012.1
20191018235031 50 227 9.0 16.0 0.00 0.07 0.07 57 1012.1
20191018234604 50 223 8.0 11.0 0.00 0.07 0.07 58 1012.1
20191018234024 50 219 7.0 11.0 0.00 0.07 0.07 56 1012.1
20191018233524 50 228 7.0 11.0 0.00 0.07 0.07 57 1012.0
20191018233110 50 170 6.0 13.0 0.00 0.07 0.07 58 1012.0
20191018232526 50 224 7.0 15.0 0.00 0.07 0.07 57 1011.9
20191018232022 50 217 9.0 15.0 0.00 0.07 0.07 57 1011.8
20191018231532 50 221 6.0 11.0 0.00 0.07 0.07 57 1011.9
20191018231022 50 217 7.0 13.0 0.00 0.07 0.07 57 1011.8
20191018230522 50 198 8.0 13.0 0.00 0.07 0.07 57 1011.8
20191018230044 50 162 5.0 14.0 0.00 0.07 0.07 57 1011.8
20191018225522 50 174 5.0 14.0 0.00 0.07 0.07 57 1011.8
20191018225028 51 204 7.0 14.0 0.00 0.07 0.07 57 1011.8
20191018224525 51 219 5.0 12.0 0.00 0.07 0.07 57 1011.8
20191018224025 51 183 6.0 17.0 0.00 0.07 0.07 57 1011.8
20191018223521 51 200 10.0 18.0 0.00 0.07 0.07 56 1011.6
20191018223044 51 217 9.0 17.0 0.00 0.07 0.07 56 1011.5
20191018222520 51 223 10.0 17.0 0.00 0.07 0.07 56 1011.4
20191018222019 51 205 8.0 13.0 0.00 0.07 0.07 57 1011.5
20191018221553 51 204 7.0 13.0 0.00 0.07 0.07 59 1011.4
20191018221019 51 209 5.0 10.0 0.00 0.07 0.07 59 1011.4
20191018220520 51 171 4.0 9.0 0.00 0.07 0.07 59 1011.4
20191018220053 51 228 6.0 9.0 0.00 0.07 0.07 59 1011.5
20191018215519 51 219 6.0 10.0 0.00 0.07 0.07 59 1011.6
20191018215025 51 211 5.0 9.0 0.00 0.07 0.07 59 1011.5
20191018214539 51 193 3.0 6.0 0.00 0.07 0.07 60 1011.6
20191018214018 51 224 0.0 4.0 0.00 0.07 0.07 62 1011.6
20191018213518 51 224 0.0 8.0 0.00 0.07 0.07 61 1011.6
20191018213104 51 225 4.0 8.0 0.00 0.07 0.07 61 1011.6
20191018212517 51 197 3.0 8.0 0.00 0.07 0.07 62 1011.7
20191018212023 51 215 5.0 15.0 0.00 0.07 0.07 61 1011.6
20191018211555 51 218 6.0 18.0 0.00 0.07 0.07 61 1011.6
20191018211017 51 213 9.0 18.0 0.00 0.07 0.07 61 1011.7
20191018210517 51 236 7.0 14.0 0.00 0.07 0.07 61 1011.7
20191018210020 51 225 6.0 12.0 0.00 0.07 0.07 61 1011.5
20191018205525 51 213 8.0 12.0 0.00 0.07 0.07 61 1011.5
20191018205020 50 228 5.0 18.0 0.00 0.07 0.07 61 1011.5
20191018204603 50 223 9.0 18.0 0.00 0.07 0.07 60 1011.4
20191018204019 50 230 7.0 17.0 0.00 0.07 0.07 59 1011.4
20191018203516 50 233 8.0 16.0 0.00 0.07 0.07 58 1011.5
20191018203021 50 242 8.0 16.0 0.00 0.07 0.07 59 1011.4
20191018202522 50 209 8.0 16.0 0.00 0.07 0.07 59 1011.7
20191018202016 50 219 5.0 15.0 0.00 0.07 0.07 58 1011.6
20191018201550 50 271 6.0 15.0 0.00 0.07 0.07 59 1011.6
20191018201015 50 236 7.0 15.0 0.00 0.07 0.07 58 1011.6
20191018200514 50 222 3.0 15.0 0.00 0.07 0.07 59 1011.6
20191018200041 50 221 9.0 19.0 0.00 0.07 0.07 58 1011.6
20191018195514 50 213 9.0 19.0 0.00 0.07 0.07 58 1011.6
20191018195014 50 223 11.0 20.0 0.00 0.07 0.07 58 1011.5
20191018194524 50 235 8.0 19.0 0.00 0.07 0.07 61 1011.5
20191018194014 50 219 12.0 18.0 0.00 0.07 0.07 61 1011.6
20191018193522 50 239 7.0 15.0 0.00 0.07 0.07 60 1011.4
20191018193050 50 225 9.0 16.0 0.00 0.07 0.07 60 1011.5
20191018192511 51 211 9.0 16.0 0.00 0.07 0.07 60 1011.5
20191018192021 51 231 8.0 22.0 0.00 0.07 0.07 61 1011.4
20191018191531 50 220 13.0 22.0 0.00 0.07 0.07 60 1011.5
20191018191011 51 237 12.0 22.0 0.00 0.07 0.07 60 1011.4
20191018190510 50 169 10.0 22.0 0.00 0.07 0.07 61 1011.2
20191018190016 51 221 8.0 18.0 0.00 0.07 0.07 61 1011.2
20191018185510 51 177 7.0 13.0 0.00 0.07 0.07 62 1011.1
20191018185009 50 207 7.0 11.0 0.00 0.07 0.07 62 1011.2
20191018184528 50 202 6.0 15.0 0.00 0.07 0.07 64 1011.2
20191018184007 50 171 9.0 23.0 0.00 0.07 0.07 63 1011.0
20191018183507 50 200 11.0 17.0 0.00 0.07 0.07 64 1011.0
20191018183016 50 219 5.0 17.0 0.00 0.07 0.07 67 1011.1
20191018182505 49 231 8.0 22.0 0.00 0.07 0.07 65 1011.1
20191018182007 49 242 9.0 19.0 0.00 0.07 0.07 67 1011.1
20191018181504 49 203 8.0 14.0 0.00 0.07 0.07 66 1011.1
20191018181003 49 207 4.0 13.0 0.00 0.07 0.07 68 1011.2
20191018180502 49 194 8.0 15.0 0.00 0.07 0.07 66 1011.1
20191018180001 48 178 8.0 16.0 0.00 0.07 0.07 68 1011.1
20191018175100 48 223 9.0 14.0 0.00 0.07 0.07 68 1011.1
20191018174808 48 196 5.0 16.0 0.00 0.07 0.07 71 1011.3
20191018174059 47 170 7.0 16.0 0.00 0.07 0.07 72 1011.3
20191018173602 47 229 3.0 7.0 0.00 0.07 0.07 71 1011.4
20191018173209 47 159 4.0 12.0 0.00 0.07 0.07 73 1011.3
20191018172609 46 212 7.0 12.0 0.00 0.07 0.07 73 1011.2
20191018172057 46 186 2.0 7.0 0.00 0.07 0.07 74 1011.2
20191018171641 45 214 1.0 5.0 0.00 0.07 0.07 74 1011.2
20191018171057 45 336 1.0 3.0 0.00 0.07 0.07 77 1011.1
20191018170557 44 10 0.0 5.0 0.00 0.07 0.07 77 1011.1
20191018170153 44 10 1.0 5.0 0.00 0.07 0.07 77 1011.1
20191018165556 44 20 0.0 5.0 0.00 0.07 0.07 78 1011.0
20191018165055 44 53 2.0 5.0 0.00 0.07 0.07 77 1010.9
20191018164642 44 82 0.0 4.0 0.00 0.07 0.07 78 1011.0
20191018164055 44 82 2.0 4.0 0.00 0.07 0.07 77 1010.9
20191018163555 44 84 1.0 3.0 0.00 0.07 0.07 77 1010.8
20191018163141 44 85 0.0 7.0 0.00 0.07 0.07 79 1010.8
20191018162554 43 140 2.0 7.0 0.00 0.07 0.07 78 1010.8
20191018162053 43 254 0.0 6.0 0.00 0.07 0.07 81 1010.8
20191018161749 42 256 1.0 6.0 0.00 0.07 0.07 81 1010.8
20191018161053 42 312 0.0 5.0 0.00 0.07 0.07 81 1010.8
20191018160553 42 272 1.0 7.0 0.00 0.07 0.07 81 1010.7
20191018160155 42 5 4.0 7.0 0.00 0.07 0.07 83 1010.5
20191018155601 42 136 0.0 3.0 0.00 0.07 0.07 83 1010.4
20191018155109 42 136 0.0 3.0 0.00 0.07 0.07 83 1010.2
20191018154729 42 253 1.0 5.0 0.00 0.07 0.07 83 1010.1
20191018154050 42 345 1.0 4.0 0.00 0.07 0.07 83 1010.2
20191018153552 42 345 0.0 4.0 0.00 0.07 0.07 84 1010.2
20191018153240 42 345 0.0 2.0 0.00 0.07 0.07 83 1010.2
20191018152547 42 345 0.0 1.0 0.00 0.07 0.07 84 1010.1
20191018152047 41 345 0.0 5.0 0.00 0.07 0.07 83 1010.0
20191018151650 41 345 0.0 5.0 0.00 0.07 0.07 84 1009.9
20191018151051 41 302 0.0 4.0 0.00 0.07 0.07 85 1010.0
20191018150550 41 302 2.0 4.0 0.00 0.07 0.07 84 1009.9
20191018150139 41 275 0.0 4.0 0.00 0.07 0.07 84 1009.8
20191018145545 41 275 0.0 4.0 0.00 0.07 0.07 84 1009.7
20191018145045 41 215 0.0 2.0 0.00 0.07 0.07 83 1009.7
20191018144645 41 215 0.0 2.0 0.00 0.07 0.07 83 1009.6
20191018144046 41 215 0.0 4.0 0.00 0.07 0.07 82 1009.5
20191018143542 41 215 0.0 5.0 0.00 0.07 0.07 81 1009.3
20191018143159 41 215 2.0 5.0 0.00 0.07 0.07 81 1009.3
20191018142540 42 215 0.0 5.0 0.00 0.07 0.07 81 1009.1
20191018142039 42 215 0.0 5.0 0.00 0.07 0.07 81 1009.0
20191018141632 42 203 0.0 2.0 0.00 0.07 0.07 81 1009.1
20191018141037 42 203 0.0 3.0 0.00 0.07 0.07 80 1009.0
20191018140539 42 203 0.0 5.0 0.00 0.07 0.07 79 1008.8
20191018140158 42 204 1.0 5.0 0.00 0.07 0.07 79 1008.8
20191018135544 42 189 0.0 8.0 0.00 0.07 0.07 78 1008.8
20191018135039 42 199 2.0 8.0 0.00 0.07 0.07 78 1008.6
20191018134635 42 178 0.0 12.0 0.00 0.07 0.07 78 1008.6
20191018134038 42 217 6.0 12.0 0.00 0.07 0.07 78 1008.6
20191018133540 42 240 3.0 6.0 0.00 0.07 0.07 78 1008.4
20191018133124 42 244 2.0 7.0 0.00 0.07 0.07 78 1008.2
20191018132532 43 257 3.0 7.0 0.00 0.07 0.07 78 1008.1
20191018132031 43 175 2.0 16.0 0.00 0.07 0.07 77 1007.8
20191018131607 42 187 1.0 16.0 0.00 0.07 0.07 78 1007.7
20191018131031 42 176 0.0 4.0 0.00 0.07 0.07 79 1007.7
20191018130529 42 175 0.0 3.0 0.00 0.07 0.07 79 1007.8
20191018130113 42 175 0.0 3.0 0.00 0.07 0.07 80 1007.7
20191018125528 42 175 0.0 3.0 0.00 0.07 0.07 80 1007.6
20191018125028 42 175 0.0 1.0 0.00 0.07 0.07 79 1007.5
20191018124554 42 175 0.0 3.0 0.00 0.07 0.07 80 1007.4
20191018124026 42 175 0.0 7.0 0.00 0.07 0.07 81 1007.4
20191018123528 42 175 0.0 12.0 0.00 0.07 0.07 81 1007.3
20191018123037 42 76 0.0 3.0 0.00 0.07 0.07 83 1007.3
20191018122526 42 76 0.0 4.0 0.00 0.07 0.07 83 1007.3
20191018122025 42 76 0.0 4.0 0.00 0.07 0.07 84 1007.3
20191018121616 43 104 1.0 3.0 0.00 0.07 0.07 82 1007.3
20191018121028 43 162 0.0 5.0 0.00 0.07 0.07 81 1007.2
20191018120523 43 172 1.0 5.0 0.00 0.07 0.07 82 1007.1
20191018120103 43 88 0.0 3.0 0.00 0.07 0.07 83 1007.0
20191018115522 43 86 0.0 5.0 0.00 0.07 0.07 83 1006.9
20191018115028 42 73 1.0 6.0 0.00 0.07 0.07 84 1006.8
20191018114622 43 51 3.0 6.0 0.00 0.07 0.07 84 1006.8
20191018114021 43 228 0.0 4.0 0.00 0.07 0.07 84 1006.7
20191018113520 43 221 0.0 4.0 0.00 0.07 0.07 85 1006.6
20191018113030 43 198 1.0 4.0 0.00 0.07 0.07 85 1006.6
20191018112517 43 248 1.0 7.0 0.00 0.07 0.07 85 1006.5
20191018112016 44 219 0.0 14.0 0.00 0.07 0.07 83 1006.3
20191018111524 44 184 5.0 12.0 0.00 0.07 0.07 84 1006.0
20191018111016 43 227 6.0 12.0 0.00 0.07 0.07 84 1005.8
20191018110519 44 196 6.0 12.0 0.00 0.07 0.07 84 1005.8
20191018110020 44 190 3.0 14.0 0.00 0.07 0.07 85 1006.0
20191018105513 44 223 5.0 17.0 0.00 0.07 0.07 84 1005.9
20191018105019 44 232 9.0 17.0 0.00 0.09 0.07 84 1005.8
20191018104545 44 223 6.0 9.0 0.00 0.09 0.07 85 1005.9
20191018104014 44 257 4.0 12.0 0.00 0.09 0.07 85 1005.9
20191018103516 45 232 6.0 12.0 0.00 0.09 0.07 84 1005.8
20191018103023 45 235 6.0 15.0 0.00 0.09 0.07 84 1005.9
20191018102516 45 220 8.0 15.0 0.00 0.09 0.07 85 1005.7
20191018102014 45 218 8.0 23.0 0.00 0.09 0.07 85 1005.7
20191018101517 45 207 8.0 23.0 0.00 0.09 0.07 84 1005.6
20191018101008 46 197 12.0 17.0 0.00 0.09 0.07 84 1005.5
20191018100513 45 162 7.0 13.0 0.00 0.09 0.07 86 1005.5
20191018100035 46 229 8.0 13.0 0.00 0.09 0.07 84 1005.6
20191018095505 45 223 5.0 11.0 0.00 0.09 0.07 86 1005.5
20191018095008 45 207 4.0 8.0 0.00 0.09 0.07 86 1005.5
20191018094522 45 148 3.0 11.0 0.00 0.09 0.07 85 1005.5
20191018094007 45 144 4.0 12.0 0.00 0.09 0.07 85 1005.4
20191018093505 46 172 6.0 13.0 0.00 0.09 0.07 85 1005.5
20191018093019 45 176 6.0 13.0 0.00 0.09 0.07 85 1005.5
20191018092507 45 172 5.0 12.0 0.02 0.09 0.07 86 1005.5
20191018092002 45 185 6.0 11.0 0.02 0.09 0.07 87 1005.4
20191018091503 45 132 4.0 10.0 0.04 0.09 0.07 87 1005.3
20191018091006 45 144 2.0 8.0 0.05 0.09 0.07 87 1005.3
20191018090502 45 134 4.0 9.0 0.06 0.09 0.07 87 1005.4
20191018090003 45 194 5.0 15.0 0.07 0.09 0.07 87 1005.3
20191018085502 45 159 5.0 15.0 0.07 0.09 0.07 86 1005.3
20191018085004 45 136 5.0 10.0 0.07 0.09 0.07 87 1005.2
20191018084500 45 163 1.0 7.0 0.07 0.09 0.07 87 1005.4
20191018084100 45 188 1.0 5.0 0.07 0.09 0.07 87 1005.4
20191018083559 45 164 2.0 5.0 0.07 0.09 0.07 86 1005.5
20191018083211 45 196 0.0 7.0 0.07 0.09 0.07 86 1005.4
20191018082558 45 191 3.0 11.0 0.06 0.08 0.06 86 1005.5
20191018082110 45 147 2.0 13.0 0.05 0.07 0.05 86 1005.5
20191018081817 46 169 5.0 13.0 0.03 0.05 0.03 85 1005.7
20191018081055 46 215 7.0 12.0 0.02 0.04 0.02 83 1005.8
20191018080558 46 146 7.0 12.0 0.01 0.03 0.01 81 1005.8
20191018080244 47 207 8.0 12.0 0.00 0.02 0.00 79 1005.6
20191018075552 47 181 5.0 14.0 0.00 0.02 0.00 78 1005.7
20191018075051 47 142 6.0 14.0 0.00 0.04 0.00 76 1005.7
20191018074717 47 172 7.0 12.0 0.00 0.04 0.00 76 1005.6
20191018074059 48 195 6.0 12.0 0.00 0.04 0.00 75 1005.6
20191018073547 48 183 4.0 12.0 0.00 0.04 0.00 73 1005.7
20191018073235 48 190 5.0 9.0 0.00 0.04 0.00 72 1005.7
20191018072555 48 149 5.0 9.0 0.00 0.04 0.00 72 1005.7
20191018072049 48 174 3.0 6.0 0.00 0.04 0.00 72 1005.7
20191018071615 48 99 2.0 7.0 0.00 0.04 0.00 72 1005.8
20191018071051 48 105 1.0 7.0 0.00 0.04 0.00 72 1005.9
20191018070542 48 165 3.0 7.0 0.00 0.04 0.00 72 1005.9
20191018070117 48 88 0.0 6.0 0.00 0.04 0.00 71 1005.8
20191018065540 48 88 1.0 6.0 0.00 0.04 0.00 71 1005.9
20191018065044 48 86 0.0 5.0 0.00 0.04 0.04 71 1005.8
20191018064554 48 86 0.0 9.0 0.00 0.04 0.04 71 1005.8
20191018064056 48 153 2.0 8.0 0.00 0.04 0.04 71 1005.8
20191018063539 48 177 4.0 7.0 0.00 0.04 0.04 71 1005.9
20191018063145 48 163 2.0 6.0 0.00 0.04 0.04 71 1006.0
20191018062545 48 156 0.0 7.0 0.00 0.04 0.04 70 1006.0
20191018062048 48 94 3.0 7.0 0.00 0.04 0.04 71 1006.0
20191018061645 48 123 2.0 10.0 0.00 0.04 0.04 70 1005.9
20191018061039 48 186 3.0 14.0 0.00 0.04 0.04 71 1006.0
20191018060539 49 160 6.0 16.0 0.00 0.04 0.04 70 1006.0
20191018060130 48 132 8.0 16.0 0.00 0.04 0.04 70 1005.9
20191018055547 48 169 6.0 11.0 0.00 0.04 0.04 71 1005.8
20191018055042 48 204 4.0 12.0 0.00 0.04 0.04 71 1005.8
20191018054608 48 209 5.0 12.0 0.00 0.04 0.04 70 1005.9
20191018054039 48 140 4.0 15.0 0.00 0.04 0.04 70 1005.8
20191018053537 48 205 7.0 15.0 0.00 0.04 0.04 70 1005.9
20191018053200 48 154 5.0 11.0 0.00 0.04 0.04 70 1005.9
20191018052534 48 169 6.0 11.0 0.00 0.04 0.04 70 1005.9
20191018052033 49 215 6.0 12.0 0.00 0.04 0.04 70 1005.8
20191018051601 49 178 5.0 12.0 0.00 0.04 0.04 70 1005.8
20191018051032 49 143 1.0 11.0 0.00 0.04 0.04 70 1005.7
20191018050536 49 164 5.0 11.0 0.00 0.04 0.04 70 1005.7
20191018050118 49 84 0.0 10.0 0.00 0.04 0.04 70 1005.6
20191018045532 49 88 1.0 6.0 0.00 0.04 0.04 70 1005.8
20191018045034 49 153 0.0 8.0 0.00 0.04 0.04 69 1005.8
20191018044609 49 209 4.0 8.0 0.00 0.04 0.04 69 1005.7
20191018044040 49 137 2.0 6.0 0.00 0.04 0.04 69 1005.7
20191018043533 49 77 2.0 4.0 0.00 0.04 0.04 69 1005.7
20191018043055 49 74 0.0 4.0 0.00 0.04 0.04 69 1005.8
20191018042531 49 74 0.0 4.0 0.00 0.04 0.04 68 1005.7
20191018042035 49 74 0.0 4.0 0.00 0.04 0.04 68 1005.6
20191018041557 49 78 2.0 6.0 0.00 0.04 0.04 68 1005.5
20191018041030 50 42 1.0 5.0 0.00 0.04 0.04 68 1005.6
20191018040535 50 134 0.0 2.0 0.00 0.04 0.04 67 1005.5
20191018040105 50 146 0.0 4.0 0.00 0.04 0.04 66 1005.5
20191018035540 50 146 0.0 8.0 0.00 0.04 0.04 66 1005.4
20191018035032 50 148 3.0 8.0 0.00 0.04 0.04 66 1005.4
20191018034541 50 96 1.0 10.0 0.00 0.04 0.04 66 1005.4
20191018034033 51 74 3.0 10.0 0.00 0.04 0.04 66 1005.4
20191018033529 51 90 4.0 9.0 0.00 0.04 0.04 66 1005.4
20191018033123 51 135 2.0 9.0 0.00 0.04 0.04 66 1005.4
20191018032529 51 156 5.0 11.0 0.00 0.04 0.04 66 1005.4
20191018032029 51 137 6.0 13.0 0.00 0.04 0.04 66 1005.4
20191018031649 51 143 4.0 15.0 0.00 0.04 0.04 66 1005.4
20191018031044 51 159 8.0 15.0 0.00 0.04 0.04 66 1005.2
20191018030529 51 180 7.0 15.0 0.00 0.04 0.04 66 1005.4
20191018030107 51 176 6.0 21.0 0.00 0.04 0.04 66 1005.2
20191018025533 51 165 8.0 21.0 0.00 0.04 0.04 66 1005.2